EN

Hourly Weather Pestuny

Today, 28 October, Wednesday

Time Temperature Precipitation Wind Pressure Humidity
00:00 +10°C° 0.1 mm 5 mps 746 mmHg 86%
01:00 +10°C° 0.1 mm 5 mps 746 mmHg 87%
02:00 +10°C° 0 mm 5 mps 746 mmHg 86%
03:00 +10°C° 0 mm 5 mps 746 mmHg 87%
04:00 +9°C° 0 mm 5 mps 746 mmHg 88%
05:00 +9°C° 0 mm 5 mps 746 mmHg 89%
06:00 +9°C° 0 mm 5 mps 746 mmHg 89%
07:00 +10°C° 0 mm 4 mps 747 mmHg 90%
08:00 +10°C° 0 mm 4 mps 747 mmHg 91%
09:00 +11°C° 0 mm 4 mps 747 mmHg 89%
10:00 +11°C° 0 mm 4 mps 748 mmHg 87%
11:00 +12°C° 0 mm 4 mps 748 mmHg 85%
12:00 +12°C° 0 mm 4 mps 748 mmHg 83%
13:00 +13°C° 0 mm 3 mps 747 mmHg 81%
14:00 +14°C° 0 mm 3 mps 747 mmHg 78%
15:00 +13°C° 0 mm 3 mps 747 mmHg 81%
16:00 +12°C° 0 mm 3 mps 747 mmHg 84%
17:00 +11°C° 0 mm 3 mps 747 mmHg 87%
18:00 +11°C° 0 mm 3 mps 747 mmHg 89%
19:00 +10°C° 0 mm 3 mps 747 mmHg 90%
20:00 +10°C° 0 mm 4 mps 747 mmHg 92%
21:00 +10°C° 0 mm 4 mps 747 mmHg 91%
22:00 +10°C° 0 mm 4 mps 747 mmHg 91%
23:00 +10°C° 0 mm 4 mps 747 mmHg 91%

Tomorrow, 29 October, Thursday

Time Temperature Precipitation Wind Pressure Humidity
00:00 +10°C° 0 mm 4 mps 747 mmHg 91%
01:00 +10°C° 0 mm 4 mps 747 mmHg 92%
02:00 +10°C° 0 mm 3 mps 747 mmHg 92%
03:00 +10°C° 0 mm 3 mps 746 mmHg 92%
04:00 +10°C° 0 mm 4 mps 746 mmHg 93%
05:00 +10°C° 0 mm 4 mps 746 mmHg 93%
06:00 +10°C° 0 mm 4 mps 746 mmHg 93%
07:00 +8°C° 0 mm 4 mps 746 mmHg 93%
08:00 +8°C° 0 mm 4 mps 745 mmHg 93%
09:00 +10°C° 0 mm 4 mps 745 mmHg 92%
10:00 +10°C° 0 mm 4 mps 745 mmHg 91%
11:00 +10°C° 0 mm 4 mps 745 mmHg 89%
12:00 +10°C° 0.2 mm 4 mps 745 mmHg 89%
13:00 +11°C° 0.2 mm 4 mps 745 mmHg 88%
14:00 +11°C° 0.2 mm 3 mps 744 mmHg 88%
15:00 +10°C° 0.1 mm 3 mps 744 mmHg 89%
16:00 +10°C° 0.1 mm 2 mps 744 mmHg 91%
17:00 +10°C° 0.1 mm 2 mps 744 mmHg 92%
18:00 +10°C° 0 mm 2 mps 744 mmHg 93%
19:00 +9°C° 0 mm 2 mps 744 mmHg 94%
20:00 +9°C° 0 mm 2 mps 744 mmHg 95%
21:00 +9°C° 0 mm 2 mps 744 mmHg 95%
22:00 +9°C° 0 mm 2 mps 744 mmHg 95%
23:00 +10°C° 0 mm 1 mps 744 mmHg 95%

Day after tomorrow, 30 October, Friday

Time Temperature Precipitation Wind Pressure Humidity
00:00 +9°C° 0 mm 1 mps 744 mmHg 95%
01:00 +9°C° 0 mm 1 mps 744 mmHg 95%
02:00 +8°C° 0 mm 1 mps 744 mmHg 95%
03:00 +8°C° 0 mm 1 mps 744 mmHg 95%
04:00 +8°C° 0 mm 1 mps 744 mmHg 95%
05:00 +8°C° 0 mm 1 mps 744 mmHg 95%
06:00 +8°C° 0 mm 1 mps 744 mmHg 95%
07:00 +8°C° 0 mm 1 mps 745 mmHg 95%
08:00 +8°C° 0 mm 1 mps 745 mmHg 95%
09:00 +9°C° 0 mm 1 mps 745 mmHg 91%
10:00 +10°C° 0 mm 1 mps 745 mmHg 87%
11:00 +10°C° 0 mm 2 mps 745 mmHg 83%
12:00 +11°C° 0 mm 1 mps 745 mmHg 82%
13:00 +11°C° 0 mm 1 mps 745 mmHg 81%
14:00 +11°C° 0 mm 1 mps 745 mmHg 80%
15:00 +10°C° 0.3 mm 2 mps 745 mmHg 83%
16:00 +9°C° 0.3 mm 3 mps 744 mmHg 86%
17:00 +8°C° 0.3 mm 3 mps 744 mmHg 89%
18:00 +8°C° 0.1 mm 3 mps 744 mmHg 89%
19:00 +8°C° 0.1 mm 2 mps 745 mmHg 89%
20:00 +8°C° 0.1 mm 2 mps 745 mmHg 89%
21:00 +8°C° 0.1 mm 2 mps 745 mmHg 91%
22:00 +7°C° 0.1 mm 2 mps 745 mmHg 93%
23:00 +7°C° 0.1 mm 2 mps 745 mmHg 94%

31 October, Saturday

Time Temperature Precipitation Wind Pressure Humidity
00:00 +7°C° 0.4 mm 2 mps 745 mmHg 95%
01:00 +7°C° 0.4 mm 2 mps 745 mmHg 95%
02:00 +8°C° 0.4 mm 1 mps 745 mmHg 96%
03:00 +8°C° 0.2 mm 1 mps 746 mmHg 96%
04:00 +8°C° 0.2 mm 1 mps 746 mmHg 96%
05:00 +8°C° 0.2 mm 1 mps 747 mmHg 96%
06:00 +8°C° 0 mm 1 mps 747 mmHg 96%
07:00 +8°C° 0 mm 1 mps 748 mmHg 96%
08:00 +7°C° 0 mm 1 mps 748 mmHg 96%
09:00 +7°C° 0 mm 2 mps 749 mmHg 92%
10:00 +8°C° 0 mm 2 mps 750 mmHg 88%
11:00 +9°C° 0 mm 2 mps 750 mmHg 83%
12:00 +10°C° 0 mm 2 mps 751 mmHg 84%
13:00 +10°C° 0 mm 2 mps 751 mmHg 84%
14:00 +10°C° 0 mm 3 mps 752 mmHg 84%
15:00 +9°C° 0 mm 2 mps 752 mmHg 87%
16:00 +9°C° 0 mm 2 mps 752 mmHg 89%
17:00 +9°C° 0 mm 2 mps 753 mmHg 91%
18:00 +9°C° 0 mm 2 mps 753 mmHg 91%
19:00 +8°C° 0 mm 2 mps 754 mmHg 91%
20:00 +8°C° 0 mm 2 mps 754 mmHg 91%
21:00 +8°C° 0 mm 2 mps 754 mmHg 91%
22:00 +8°C° 0 mm 2 mps 755 mmHg 92%
23:00 +8°C° 0 mm 2 mps 755 mmHg 92%

1 November, Sunday

Time Temperature Precipitation Wind Pressure Humidity
00:00 +9°C° 0 mm 1 mps 755 mmHg 92%
01:00 +9°C° 0 mm 1 mps 755 mmHg 92%
02:00 +9°C° 0 mm 1 mps 755 mmHg 92%
03:00 +9°C° 0 mm 1 mps 755 mmHg 92%
04:00 +9°C° 0 mm 1 mps 755 mmHg 92%
05:00 +8°C° 0 mm 1 mps 756 mmHg 92%
06:00 +8°C° 0 mm 1 mps 756 mmHg 92%
07:00 +8°C° 0 mm 1 mps 756 mmHg 92%
08:00 +8°C° 0 mm 1 mps 756 mmHg 92%
09:00 +8°C° 0 mm 2 mps 756 mmHg 87%
10:00 +8°C° 0 mm 2 mps 756 mmHg 83%
11:00 +9°C° 0 mm 2 mps 756 mmHg 78%
12:00 +10°C° 0 mm 2 mps 756 mmHg 75%
13:00 +11°C° 0 mm 1 mps 756 mmHg 72%
14:00 +12°C° 0 mm 1 mps 756 mmHg 69%
15:00 +11°C° 0 mm 1 mps 755 mmHg 74%
16:00 +8°C° 0 mm 2 mps 755 mmHg 79%
17:00 +7°C° 0 mm 2 mps 755 mmHg 85%
18:00 +7°C° 0 mm 2 mps 755 mmHg 87%
19:00 +6°C° 0 mm 2 mps 755 mmHg 89%
20:00 +6°C° 0 mm 2 mps 755 mmHg 91%
21:00 +6°C° 0 mm 2 mps 755 mmHg 91%
22:00 +5°C° 0 mm 2 mps 755 mmHg 91%
23:00 +4°C° 0 mm 3 mps 755 mmHg 92%

2 November, Monday

Time Temperature Precipitation Wind Pressure Humidity
00:00 +5°C° 0 mm 2 mps 755 mmHg 91%
01:00 +5°C° 0 mm 2 mps 755 mmHg 91%
02:00 +4°C° 0 mm 2 mps 755 mmHg 90%
03:00 +4°C° 0 mm 2 mps 755 mmHg 90%
04:00 +4°C° 0 mm 2 mps 755 mmHg 90%
05:00 +4°C° 0 mm 2 mps 755 mmHg 89%
06:00 +4°C° 0 mm 2 mps 755 mmHg 90%
07:00 +3°C° 0 mm 2 mps 755 mmHg 91%
08:00 +2°C° 0 mm 3 mps 755 mmHg 92%
09:00 +4°C° 0 mm 3 mps 755 mmHg 88%
10:00 +5°C° 0 mm 3 mps 755 mmHg 84%
11:00 +6°C° 0 mm 4 mps 755 mmHg 81%
12:00 +8°C° 0 mm 3 mps 755 mmHg 80%
13:00 +9°C° 0 mm 3 mps 755 mmHg 79%
14:00 +9°C° 0 mm 3 mps 755 mmHg 78%
15:00 +9°C° 0 mm 3 mps 755 mmHg 83%
16:00 +8°C° 0 mm 3 mps 755 mmHg 88%
17:00 +7°C° 0 mm 3 mps 755 mmHg 92%
18:00 +5°C° 0 mm 3 mps 755 mmHg 93%
19:00 +5°C° 0 mm 3 mps 755 mmHg 94%
20:00 +5°C° 0 mm 3 mps 755 mmHg 94%
21:00 +5°C° 0 mm 3 mps 755 mmHg 94%
22:00 +5°C° 0 mm 3 mps 755 mmHg 94%
23:00 +5°C° 0 mm 3 mps 755 mmHg 94%
Show more

We Need Your Consent

Meteoprog and our Service Providers may store and access personal data such as cookies, device identifiers or other similar technologies on your device and process such data to personalise content and ads, as well as provide social media features and to analyse the traffic.

  • Store and/or access information on your device

    Cookies, device identifiers or other information can be stored or accessed on your device for the purposes indicated above.

  • Personalised ads and content, ad and content measurement, audience insights, and products development

    Ads and content can be personalised based on a profile. More data can be added to better personalise ads and content. Ad and content performance can be measured. Insights about the audience who saw the ads and content can be derived. Such data can be used to develop or improve user’s experience, systems and software.

By clicking ‘I Agree’ you will allow the use of indicated cookies, device identifiers, web beacons or other similar technologies. Your settings can be changed in the browser on your device.

For certain purposes, legitimate interests may be relied on, rather than consent. You can read more about this in our Privacy and Cookie Policy.